Home > Weather > Tallinn > Past weeks

Flag for Estonia Past Weather in Tallinn, Estonia — Yesterday and Last 2 Weeks

Now
70 °F

Passing clouds.


Feels Like: 70 °F
Forecast: 50 / 62 °F
Wind: 3 mph from Southeast

Location: Tallinn

Current Time: May 25, 2016 at 10:28:28 AM

Latest Report: May 25, 2016 at 9:50 AM


Visibility: N/A

Pressure: 29.89 "Hg

Humidity: 43%

Dew Point: 46 °F

Location of TallinnLocation

Past Weather in Tallinn — Graph

°F

Tallinn Temperature Yesterday

Maximum temperature yesterday: 73 °F (at 12:50 PM)
Minimum temperature yesterday: 48 °F (at 3:50 AM)
Average temperature yesterday: 62 °F

High & Low Weather Summary for the Past Weeks

 TemperatureHumidityPressure
High73 °F (May 24, 12:50 PM)100% (May 14, 9:20 PM)30.15 "Hg (May 14, 9:20 PM)
Low34 °F (May 18, 4:20 AM)24% (May 13, 5:20 PM)29.47 "Hg (May 15, 5:20 AM)
Average55 °F66%29.85 "Hg
* Reported May 10 9:20 AM — May 25 9:20 AM, Tallinn, Weather by CustomWeather, © 2016

Note: Actual official high and low records may vary slightly from our data, if they occured in-between our weather recording intervals... More about our weather records

Advertising

Tallinn Weather History for the Previous 24 Hours

Scroll right to see more
 ConditionsComfort  
Time TempWeatherWind HumidityBarometerVisibility
9:20 AM
Wed, May 25
68 °FPassing clouds.5 mph46%29.89 "HgN/A
8:50 AM68 °FPassing clouds.3 mph49%29.89 "HgN/A
8:20 AM64 °FPassing clouds.5 mph60%29.89 "HgN/A
7:50 AM63 °FSunny.6 mph59%29.89 "Hg10 mi
7:20 AM61 °FSunny.6 mph68%29.89 "Hg10 mi
6:50 AM61 °FSunny.5 mph68%29.89 "Hg10 mi
6:20 AM55 °FSunny.2 mph77%29.89 "Hg10 mi
5:50 AM54 °FSunny.2 mph77%29.92 "Hg10 mi
5:20 AM52 °FClear.1 mph88%29.89 "Hg10 mi
4:50 AM54 °FClear.2 mph82%29.92 "Hg10 mi
4:20 AM50 °FClear.1 mph82%29.92 "Hg10 mi
3:50 AM50 °FClear.No wind82%29.92 "Hg10 mi
3:20 AM50 °FClear.No wind82%29.92 "Hg10 mi
2:50 AM50 °FClear.3 mph82%29.92 "Hg10 mi
2:20 AM52 °FClear.5 mph82%29.92 "Hg10 mi
1:50 AM52 °FClear.5 mph82%29.92 "Hg10 mi
1:20 AM52 °FClear.3 mph82%29.92 "Hg10 mi
12:50 AM54 °FClear.3 mph77%29.92 "Hg10 mi
12:20 AM55 °FClear.2 mph72%29.95 "Hg10 mi
11:50 PM
Tue, May 24
55 °FClear.3 mph72%29.95 "Hg10 mi
11:20 PM55 °FClear.5 mph72%29.95 "Hg10 mi
10:50 PM59 °FSunny.6 mph63%29.95 "Hg10 mi
10:20 PM61 °FSunny.6 mph59%29.95 "Hg10 mi
9:50 PM64 °FSunny.7 mph49%29.95 "Hg10 mi
9:20 PM66 °FSunny.7 mph46%29.95 "Hg10 mi
8:50 PM68 °FSunny.8 mph43%29.95 "Hg10 mi
8:20 PM68 °FSunny.8 mph43%29.95 "Hg10 mi
7:50 PM70 °FSunny.9 mph40%29.95 "Hg10 mi
7:20 PM70 °FPassing clouds.9 mph43%29.95 "HgN/A
6:50 PM68 °FSunny.10 mph49%29.95 "Hg10 mi
6:20 PM70 °FSunny.9 mph46%29.95 "Hg10 mi
5:50 PM70 °FSunny.10 mph46%29.95 "Hg10 mi
5:20 PM70 °FPassing clouds.10 mph40%29.95 "HgN/A
4:50 PM70 °FPassing clouds.10 mph38%29.98 "HgN/A
4:20 PM70 °FSunny.13 mph38%29.98 "Hg10 mi
3:50 PM70 °FSunny.14 mph35%29.98 "Hg10 mi
3:20 PM72 °FPassing clouds.13 mph38%29.98 "HgN/A
2:50 PM72 °FSunny.13 mph38%29.98 "Hg10 mi
2:20 PM72 °FPassing clouds.13 mph38%29.98 "HgN/A
1:50 PM72 °FSunny.13 mph38%30.01 "Hg10 mi
1:20 PM72 °FPassing clouds.12 mph38%30.01 "HgN/A
12:50 PM73 °FPassing clouds.9 mph31%30.01 "HgN/A
12:20 PM72 °FPassing clouds.7 mph36%30.01 "HgN/A
11:50 AM70 °FPassing clouds.8 mph40%30.01 "HgN/A
11:20 AM70 °FSunny.7 mph43%30.01 "Hg10 mi
10:50 AM70 °FPassing clouds.8 mph43%30.04 "HgN/A
10:20 AM70 °FPassing clouds.7 mph50%30.04 "HgN/A
Weather by CustomWeather, © 2016

See weather overviewHow to use our weather pages